Regional Weather Roundup
Issued by NWS

Home | Current Version | Previous Version | Text Only | Print | Product List | Glossary On
Versions: 1 2 3 4 5 6 7 8 9 10 11 12 13 14 15 16 17 18 19 20 21 22 23 24 25 26 27 28 29 30 31 32 33 34 35 36 37 38 39 40 41 42 43 44 45 46 47 48 49 50
000
ASUS43 KLSX 310107
RWRMO

WEATHER SUMMARY FOR MISSOURI
NATIONAL WEATHER SERVICE SPRINGFIELD MO
800 PM CDT SAT JUL 30 2016

NOTE: "FAIR" INDICATES FEW OR NO CLOUDS BELOW 12,000 FEET WITH NO
       SIGNIFICANT WEATHER AND/OR OBSTRUCTIONS TO VISIBILITY.
       CURRENT SKY AND/OR WEATHER CONDITIONS ARE NOT AVAILABLE FOR
       CHILLICOTHE AND FARMINGTON.

MOZ001>031-035>038-043-044-053-054-310200-
...NORTHERN AND WESTERN MISSOURI...

CITY           SKY/WX    TMP DP  RH WIND       PRES   REMARKS
KANSAS CTY INT CLEAR     81  65  58 NE8       29.95S
KANSAS C DTWN  CLEAR     82  66  58 E8        29.93S
LEE`S SUMMIT   CLEAR     80  68  66 E5        29.96R
ST JOSEPH      CLEAR     80  67  64 S5        29.95R
CHILLICOTHE      N/A     79  67  66 CALM      29.96S
KIRKSVILLE     CLEAR     79  64  60 CALM      29.97S

$$
MOZ066>068-077>081-088>096-101>105-310200-
...SOUTHWEST MISSOURI...

CITY           SKY/WX    TMP DP  RH WIND       PRES   REMARKS
SPRINGFIELD    CLEAR     82  68  62 E7        29.97R
JOPLIN         CLEAR     83  70  64 SE7       29.95R
BRANSON        MOCLDY    79  72  78 S7        30.00R

$$
MOZ032>034-039>042-045>050-055>058-069>072-310200-
...CENTRAL MISSOURI...

CITY           SKY/WX    TMP DP  RH WIND       PRES   REMARKS
COLUMBIA       CLEAR     77  68  73 NE3       29.96F
JEFFERSON CITY CLEAR     80  65  59 NE3       29.94F
ROLLA          PTCLDY    79  67  66 N3        29.97R
SEDALIA        CLEAR     79  67  66 NE5       29.97S
WHITEMAN AFB   CLEAR     79  70  72 E5        29.95S
OSAGE BEACH    CLEAR     78  71  79 CALM      29.97R

$$
MOZ051-052-059>065-310200-
...EAST CENTRAL MISSOURI...

CITY           SKY/WX    TMP DP  RH WIND       PRES   REMARKS
ST LOUIS INTL  CLOUDY    80  66  62 N5        29.96S
SPIRIT OF STL  PTCLDY    80  68  66 NW6       29.94S
ST CHARLES     PTCLDY    80  69  69 NW3       29.94S

$$
MOZ072>076-082>087-097>100-106>115-310200-
...SOUTH CENTRAL AND SOUTHEAST MISSOURI...

CITY           SKY/WX    TMP DP  RH WIND       PRES   REMARKS
CAPE GIRARDEAU MOCLDY    80  72  76 E6        29.94S
FARMINGTON     MOCLDY    81  68  64 CALM      29.98R
POPLAR BLUFF   MOCLDY    81  74  79 S3        29.94S
WEST PLAINS    PTCLDY    81  71  71 S3        30.00R

$$



USA.gov is the U.S. government's official web portal to all federal, state and local government web resources and services.